Wind_Speed
23 25 26 27 25 22 21 20 17 16 15 15 15 15 14 14 16 17 17 14 12 12 14 15 17 18 18 18 18 17 18 18 18 19 19 20 21 21 22 23 23 23
23 26 27 27 25 22 21 20 17 15 15 15 15 14 14 14 15 17 17 15 13 13 14 16 18 19 19 18 18 18 18 18 19 19 20 20 21 22 22 23 23 24
24 26 27 26 24 22 21 19 16 14 14 15 14 14 14 14 15 16 17 16 15 14 16 17 18 19 19 19 19 18 18 19 19 20 20 20 21 22 23 23 24 24
24 26 26 25 24 23 21 18 14 13 14 14 13 13 14 15 15 16 17 16 15 15 16 17 18 19 20 19 19 19 19 19 20 20 20 21 21 23 24 24 25 26
25 26 26 25 25 23 20 17 14 14 14 14 13 13 14 15 16 17 17 17 16 16 17 18 19 20 20 19 19 19 19 20 20 20 21 21 22 24 25 26 26 28
25 25 26 26 25 22 20 16 14 14 14 13 13 13 15 16 17 18 18 17 17 17 18 18 19 20 20 19 19 19 20 20 21 21 22 22 24 25 26 27 28 30
25 26 26 26 24 22 19 15 14 15 14 13 13 14 15 17 18 18 19 18 17 18 18 19 20 20 20 20 20 21 21 22 22 23 23 24 26 27 27 29 31 32
26 26 26 25 23 21 18 15 15 15 14 13 13 14 16 17 18 19 19 19 18 18 19 20 21 21 21 21 22 22 23 24 24 24 25 26 27 27 28 30 31 31
27 25 24 24 22 21 18 16 16 15 14 13 14 15 16 17 18 19 20 19 18 18 19 20 21 21 22 23 23 24 25 26 25 25 26 27 28 28 29 29 29 29
26 24 23 23 22 21 18 17 16 15 14 14 15 15 16 18 19 19 20 19 18 18 19 20 21 22 23 24 25 26 27 27 26 26 27 28 29 28 28 28 28 29
25 24 23 22 22 21 19 18 17 16 15 15 15 15 16 18 19 20 20 19 18 18 18 19 20 22 24 25 26 26 27 27 27 26 27 30 30 28 27 28 29 28
25 23 22 22 22 21 21 20 18 16 16 16 16 16 16 18 19 20 21 20 19 18 18 20 21 23 25 25 25 26 27 26 26 26 28 30 29 27 28 29 29 28
25 24 22 22 22 22 21 20 18 17 17 17 17 16 17 18 20 21 21 20 19 19 20 21 22 24 24 24 25 26 26 26 26 27 29 29 28 29 30 30 29 29
25 25 23 22 22 22 21 20 18 18 18 18 17 17 17 19 21 21 21 20 19 19 20 21 22 22 23 23 24 26 26 26 27 29 29 29 30 31 31 30 30 31
26 26 24 23 23 22 21 20 20 20 19 18 18 18 18 20 22 22 21 20 20 20 20 20 21 22 23 24 25 26 27 27 28 29 29 30 31 32 31 31 32 32
27 27 25 23 23 23 23 22 22 21 20 19 19 19 20 21 22 22 21 21 21 21 21 21 22 23 24 25 26 27 29 29 28 29 30 31 32 32 32 32 33 33
28 27 25 24 24 24 24 23 23 22 20 20 20 21 21 22 22 22 22 22 22 23 23 22 23 24 25 26 27 29 29 29 30 31 32 33 33 33 33 33 33 33
28 27 26 25 25 25 24 24 23 22 20 20 21 22 23 22 22 23 23 24 24 24 24 24 25 26 26 27 28 29 29 30 31 32 33 34 35 34 34 34 34 34
29 27 27 26 26 25 24 23 23 22 21 21 22 23 23 22 22 23 24 24 24 24 24 25 26 27 27 27 28 29 30 30 31 32 33 34 35 35 34 34 33 34
29 27 27 27 26 25 24 23 23 22 21 22 23 24 23 22 22 23 24 24 24 25 25 26 28 28 28 28 28 29 30 30 31 32 33 34 34 35 35 34 33 34
28 27 28 28 27 26 26 25 24 22 20 22 24 24 24 23 23 23 24 25 25 26 27 28 28 29 28 28 28 29 30 30 32 34 35 34 34 35 35 33 33 34
28 28 28 28 27 26 25 25 24 22 22 24 25 25 24 23 24 24 25 25 26 27 28 28 28 28 29 29 28 29 30 32 33 35 35 34 35 36 34 32 32 33
30 29 29 29 29 27 25 24 24 23 23 25 25 25 24 24 24 25 25 26 27 28 28 27 27 29 30 30 29 30 32 33 35 36 36 37 38 35 31 30 31 33
31 30 29 30 31 30 27 24 23 23 23 23 24 24 24 24 25 25 27 28 28 28 28 27 28 30 30 31 31 31 33 35 35 35 36 36 34 30 27 28 32 33
32 30 30 31 32 31 28 24 22 23 23 23 23 23 23 24 25 27 27 28 28 28 27 28 30 31 31 32 33 33 35 36 36 35 35 33 31 29 29 31 32 32
32 30 31 32 31 29 27 24 23 25 26 25 23 22 23 25 26 27 27 28 28 28 28 30 32 32 33 34 34 35 36 37 36 35 34 32 32 33 33 33 32 32
Wind_Direction
268 267 265 262 259 259 260 260 259 260 263 268 274 280 286 288 290 291 290 287 282 279 278 278 278 278 278 276 276 278 280 283 285 287 290 293 296 299 301 302 302 302
267 265 262 259 257 257 257 256 256 258 262 267 274 281 285 287 289 290 291 289 284 280 278 277 278 278 277 275 276 278 281 284 287 289 292 296 300 302 303 302 302 304
265 262 259 256 255 255 254 254 256 260 264 268 272 279 284 286 286 287 289 288 284 281 278 278 278 277 275 274 275 279 282 285 288 291 295 299 301 302 301 301 303 305
263 259 256 254 254 253 253 255 258 261 265 268 271 275 279 281 283 285 286 285 281 277 276 277 276 274 273 272 275 279 283 286 290 293 297 299 299 299 299 300 302 305
261 256 253 252 252 252 253 255 258 260 264 268 271 273 275 277 280 282 284 283 277 272 271 273 274 272 271 272 275 279 283 286 290 293 295 296 295 295 296 299 302 304
256 251 250 250 251 252 254 255 255 257 261 266 269 271 272 274 277 280 282 282 278 271 269 271 272 272 271 272 275 278 281 285 288 291 293 293 293 294 296 300 302 304
250 248 248 249 251 252 253 252 252 254 260 264 267 269 270 272 275 277 280 280 279 274 270 270 271 270 270 270 273 276 279 283 287 291 293 294 294 296 299 302 302 302
248 247 249 250 250 251 252 250 250 254 260 264 266 267 268 270 273 275 278 278 278 274 270 268 269 269 269 269 271 275 279 283 288 293 296 296 296 298 301 302 301 301
248 248 250 250 250 251 251 249 249 254 259 262 265 266 268 270 271 274 277 277 276 273 269 268 268 269 269 270 273 276 281 285 290 294 296 295 296 299 300 300 300 300
249 249 249 248 248 250 251 250 250 253 257 262 264 265 267 269 272 276 277 275 272 269 269 269 269 270 271 273 276 279 284 287 290 293 294 295 298 298 297 298 299 299
248 246 245 244 247 250 251 250 249 251 256 262 264 265 267 269 274 277 276 273 270 267 269 270 270 271 273 275 279 282 285 287 290 294 296 298 299 296 295 298 300 299
245 242 240 241 246 249 250 250 249 250 257 263 265 265 266 269 274 276 276 274 270 268 269 270 271 273 275 277 280 282 284 288 294 297 298 299 298 296 298 301 301 301
242 240 239 242 246 248 250 251 250 250 257 263 265 265 266 269 272 275 278 277 273 270 270 271 273 275 277 280 282 284 288 293 297 297 298 299 297 298 301 302 302 303
241 242 242 244 247 250 253 254 252 251 256 262 265 266 266 268 271 275 277 278 276 275 274 275 276 278 281 283 285 288 292 295 296 296 297 296 295 298 301 302 303 303
242 244 244 246 249 252 255 255 252 251 255 261 265 266 266 267 270 273 275 276 276 276 276 277 279 281 284 287 289 291 292 293 293 293 294 294 295 297 300 301 302 303
244 245 246 248 251 255 256 254 251 251 255 260 263 264 265 267 269 270 272 273 274 274 276 279 281 284 287 289 290 291 291 292 292 292 293 295 296 298 299 300 301 302
245 247 250 252 254 256 256 253 251 252 254 259 263 264 265 266 267 268 269 270 271 273 276 280 283 285 287 288 289 289 290 292 293 293 294 295 297 298 299 299 300 301
247 251 255 257 257 257 256 253 252 253 255 258 261 262 263 265 266 267 267 268 270 273 277 280 282 284 285 286 287 288 289 291 291 292 294 296 297 298 298 298 298 299
248 254 258 260 260 259 257 253 251 252 254 257 259 260 262 264 264 265 266 268 270 274 277 279 281 282 284 285 285 286 287 289 291 293 294 296 296 295 295 294 294 296
250 255 259 262 263 263 260 254 249 248 250 254 257 259 260 262 264 266 268 270 273 276 277 279 281 282 283 284 284 286 287 290 293 294 295 295 294 293 293 291 291 295
250 256 259 263 266 265 259 251 245 245 251 254 256 258 261 264 266 268 270 273 275 277 277 279 281 282 282 283 284 287 289 292 295 294 294 294 292 291 290 288 290 296
252 256 259 265 267 261 253 247 243 246 252 255 256 261 265 268 269 270 272 275 276 277 278 279 280 280 281 283 285 287 290 293 295 295 295 294 291 289 288 286 289 296
253 257 261 265 265 257 249 245 244 246 253 256 260 265 268 270 272 273 275 276 276 276 278 278 278 278 279 282 285 289 292 295 296 297 298 298 293 287 284 285 292 298
253 258 262 265 264 257 250 247 244 246 254 259 263 267 269 271 273 274 274 275 275 276 276 276 276 277 280 283 288 292 295 296 296 296 299 300 295 287 284 291 297 298
252 257 261 264 262 253 247 246 246 247 253 261 265 268 270 270 271 271 272 273 273 272 272 273 274 278 281 286 291 294 294 294 294 295 297 297 292 289 293 298 299 297
250 254 259 263 258 248 242 242 246 249 253 259 263 266 267 267 268 269 269 269 269 269 271 273 277 281 285 288 291 293 292 292 293 295 295 292 288 290 296 299 298 296
Height
5808 5808 5808 5808 5809 5810 5810 5810 5810 5810 5809 5809 5809 5809 5809 5809 5808 5808 5807 5807 5807 5807 5807 5807 5807 5807 5807 5807 5807 5806 5806 5806 5805 5805 5804 5803 5802 5802 5801 5800 5799 5798
5806 5806 5806 5806 5807 5808 5808 5808 5807 5807 5807 5807 5807 5807 5807 5807 5806 5805 5805 5805 5805 5805 5805 5805 5805 5805 5805 5805 5805 5804 5804 5803 5803 5802 5802 5801 5800 5799 5799 5797 5796 5795
5803 5803 5803 5804 5805 5806 5805 5805 5805 5805 5805 5805 5805 5805 5804 5804 5804 5803 5802 5802 5803 5803 5803 5803 5803 5803 5803 5803 5802 5802 5801 5801 5800 5800 5799 5799 5798 5797 5796 5795 5794 5793
5800 5800 5801 5801 5802 5803 5802 5802 5803 5803 5803 5803 5803 5803 5803 5802 5801 5801 5800 5800 5801 5801 5801 5801 5801 5801 5801 5800 5800 5800 5799 5799 5798 5798 5797 5796 5795 5794 5793 5792 5791 5789
5798 5798 5798 5799 5799 5800 5799 5800 5800 5800 5801 5801 5801 5801 5801 5800 5799 5799 5798 5798 5799 5799 5799 5799 5799 5799 5798 5798 5798 5797 5797 5796 5796 5795 5794 5793 5792 5791 5790 5789 5788 5786
5795 5795 5796 5796 5796 5797 5797 5798 5798 5798 5798 5799 5799 5798 5798 5798 5797 5796 5796 5796 5796 5796 5796 5796 5796 5796 5796 5796 5795 5795 5794 5794 5793 5793 5792 5791 5789 5788 5787 5786 5784 5783
5792 5793 5793 5793 5793 5794 5794 5795 5795 5796 5796 5796 5796 5796 5795 5795 5794 5794 5794 5793 5793 5793 5793 5794 5793 5793 5793 5793 5792 5792 5791 5791 5790 5790 5789 5788 5787 5785 5784 5783 5781 5779
5789 5790 5790 5790 5791 5791 5792 5793 5793 5793 5793 5794 5794 5793 5793 5792 5792 5791 5791 5791 5791 5791 5791 5791 5790 5791 5790 5790 5790 5789 5789 5788 5788 5787 5786 5785 5784 5782 5781 5779 5777 5776
5786 5788 5788 5788 5788 5788 5789 5790 5790 5790 5791 5791 5791 5790 5790 5790 5789 5789 5789 5788 5788 5788 5788 5788 5788 5788 5788 5787 5787 5786 5786 5786 5785 5785 5783 5782 5780 5779 5778 5776 5774 5773
5784 5785 5785 5785 5785 5786 5786 5787 5787 5788 5788 5788 5788 5788 5787 5787 5787 5786 5786 5785 5785 5785 5785 5785 5785 5785 5785 5785 5784 5784 5783 5783 5782 5782 5780 5778 5777 5776 5774 5773 5771 5769
5781 5782 5782 5782 5782 5783 5783 5784 5784 5785 5785 5785 5785 5785 5785 5784 5784 5783 5783 5783 5782 5782 5782 5783 5783 5782 5782 5782 5782 5781 5781 5780 5779 5778 5777 5775 5774 5772 5771 5769 5768 5766
5778 5779 5779 5779 5780 5780 5780 5781 5781 5782 5782 5782 5782 5782 5782 5781 5781 5781 5780 5780 5780 5780 5780 5780 5780 5780 5780 5780 5780 5778 5777 5777 5776 5775 5773 5772 5770 5769 5768 5766 5764 5763
5775 5776 5776 5776 5777 5777 5777 5778 5779 5779 5779 5779 5779 5779 5779 5778 5778 5778 5777 5777 5777 5777 5777 5777 5777 5777 5777 5777 5776 5775 5774 5773 5773 5771 5770 5768 5767 5765 5764 5762 5761 5759
5772 5772 5773 5774 5774 5774 5775 5775 5776 5776 5776 5776 5776 5776 5776 5775 5775 5775 5775 5775 5775 5775 5775 5775 5775 5774 5774 5774 5773 5772 5771 5770 5769 5768 5766 5765 5764 5762 5761 5759 5757 5756
5768 5769 5770 5771 5771 5771 5772 5772 5773 5773 5773 5773 5773 5773 5773 5772 5772 5773 5773 5773 5772 5772 5772 5772 5772 5772 5771 5771 5770 5769 5768 5767 5766 5765 5763 5762 5760 5759 5757 5755 5754 5752
5765 5766 5767 5767 5768 5768 5768 5769 5769 5769 5769 5770 5770 5770 5770 5770 5770 5770 5770 5770 5770 5769 5769 5770 5769 5769 5769 5768 5767 5766 5765 5764 5763 5762 5760 5759 5757 5756 5754 5752 5750 5749
5761 5762 5763 5764 5765 5765 5765 5765 5765 5766 5766 5766 5766 5766 5766 5767 5767 5767 5767 5767 5767 5767 5767 5767 5767 5766 5766 5765 5764 5763 5762 5761 5760 5758 5757 5755 5754 5752 5750 5748 5747 5745
5758 5759 5760 5761 5761 5761 5761 5762 5762 5763 5763 5763 5763 5763 5763 5763 5764 5764 5764 5764 5764 5764 5764 5764 5764 5763 5762 5762 5761 5760 5759 5758 5756 5755 5753 5752 5750 5749 5747 5745 5744 5742
5755 5756 5756 5756 5757 5757 5758 5759 5759 5760 5760 5760 5760 5760 5760 5760 5761 5761 5761 5761 5761 5761 5761 5761 5760 5760 5759 5758 5758 5757 5755 5754 5753 5752 5750 5748 5747 5745 5743 5741 5740 5738
5751 5752 5752 5752 5753 5754 5755 5755 5756 5756 5756 5756 5756 5756 5757 5758 5758 5758 5758 5758 5758 5758 5758 5757 5757 5756 5755 5755 5754 5753 5752 5751 5749 5748 5746 5745 5743 5741 5739 5737 5736 5734
5748 5749 5748 5748 5749 5749 5750 5751 5752 5752 5753 5753 5753 5753 5754 5754 5755 5755 5755 5755 5755 5755 5754 5754 5753 5752 5752 5751 5751 5750 5749 5747 5746 5744 5742 5741 5739 5736 5735 5733 5732 5730
5745 5745 5745 5745 5745 5745 5746 5747 5748 5749 5750 5750 5750 5750 5751 5751 5751 5751 5752 5752 5752 5751 5751 5750 5750 5749 5748 5748 5747 5746 5745 5743 5742 5740 5738 5736 5734 5732 5730 5729 5728 5726
5741 5741 5742 5741 5740 5740 5742 5743 5744 5745 5746 5746 5747 5747 5747 5748 5748 5748 5749 5748 5748 5748 5747 5747 5746 5745 5744 5744 5743 5743 5741 5739 5737 5735 5734 5732 5729 5727 5726 5725 5723 5722
5737 5738 5739 5737 5736 5736 5737 5738 5740 5742 5743 5744 5744 5744 5744 5745 5745 5745 5745 5745 5744 5744 5743 5743 5742 5741 5740 5740 5739 5739 5737 5735 5733 5731 5730 5728 5726 5723 5722 5721 5719 5718
5733 5735 5735 5733 5732 5733 5734 5735 5737 5739 5740 5740 5740 5741 5741 5742 5742 5741 5741 5741 5740 5740 5740 5739 5738 5737 5737 5736 5735 5734 5732 5731 5729 5727 5726 5725 5722 5720 5719 5717 5715 5714
5731 5732 5730 5729 5730 5732 5732 5733 5735 5735 5736 5736 5737 5738 5738 5738 5738 5738 5737 5737 5736 5736 5736 5735 5734 5734 5733 5732 5731 5730 5728 5726 5725 5723 5722 5720 5719 5717 5715 5713 5711 5710